Regional Weather Roundup
Issued by NWS Kansas City/Pleasant Hill, MO

Home | Current Version | Previous Version | Graphics & Text | Print | Product List | Glossary Off
Versions: 1 2 3 4 5 6 7 8 9 10 11 12 13 14 15 16 17 18 19 20 21 22 23 24 25 26

000
ASUS43 KEAX 270410
RWREAX

WEATHER ROUNDUP FOR EASTERN KANSAS AND NORTHWEST MISSOURI
NATIONAL WEATHER SERVICE KANSAS CITY/PLEASANT HILL MO
1100 PM CDT THU MAY 26 2016

KSZ040-057-103>105-MOZ028-029-037-043-270500-
...KANSAS CITY METROPOLITAN AREA...

CITY           SKY/WX    TMP DP  RH WIND       PRES   REMARKS
K.C. INTL      RAIN      62  60  93 N15       29.88F FOG
K.C. DOWNTOWN  LGT RAIN  64  62  93 NE14      29.87F
LEES SUMMIT    CLOUDY    62  61  96 N15       29.88F
OLATHE - IXD   HVY RAIN  62  61  96 N10       29.88R FOG
OLATHE - OJC   LGT RAIN  62  60  93 NE20G29   29.85F
LAWRENCE       LGT RAIN  62  61  96 E7        29.87F

$$

MOZ001>008-011>017-020>025-030>033-038>040-044>046-053-054-270500-
...NORTHERN AND CENTRAL MISSOURI...

CITY           SKY/WX    TMP DP  RH WIND       PRES   REMARKS
ST. JOSEPH     RAIN      63  60  90 E12       29.92F
MOSBY          CLOUDY    63  63 100 N8        29.91F
WARRENSBURG    CLOUDY    61  61 100 N7        29.86F
WHITEMAN AFB   CLOUDY    62  62 100 NE6       29.85F
CLINTON        CLOUDY    64  64 100 E9        29.87S
SEDALIA        CLOUDY    64  62  93 MISG      29.88F
WARSAW         NOT AVBL
CHILLICOTHE      N/A     64  63  96 CALM      29.95R
KIRKSVILLE     LGT RAIN  64  62  93 SE3       29.95R

$$

MOZ041-047>049-056>058-063>065-088>090-097-270500-
...EASTERN AND SOUTHERN MISSOURI...

CITY           SKY/WX    TMP DP  RH WIND       PRES   REMARKS
ST. LOUIS INTL TSTM      74  65  73 S14G21    29.92S
SPIRIT OF STL  TSTM      73  66  78 S12G23    29.89S
COLUMBIA       HVY RAIN  65  63  93 NE10      29.90S FOG
JEFFERSON CITY CLOUDY    65  63  93 NE12      29.89F
ROLLA          MOCLDY    66  63  90 E12       29.89S
SPRINGFIELD    PTCLDY    70  62  76 SE12      29.86R
JOPLIN         CLEAR     67  59  75 E6        29.81F
WEST PLAINS    MOCLDY    68  64  87 SE8       29.93R

$$

IAZ060-094-KSZ022-034>040-054-083-096-NEZ052-066-093-270500-
...KANSAS...SOUTHEAST NEBRASKA AND IOWA...

CITY           SKY/WX    TMP DP  RH WIND       PRES   REMARKS
TOPEKA         RAIN      63  61  93 E10       29.85F FOG
MANHATTAN      TSTM      60  57  89 SW14G26   29.89R VSB 3/4
EMPORIA        CLOUDY    63  60  90 E13G20    29.84S
CHANUTE        CLEAR     71  65  81 NE6       29.81R
WICHITA        CLOUDY    76  65  68 E9G18     29.78R
OMAHA          CLOUDY    66  53  63 SE30G44   29.77R
LINCOLN        CLOUDY    63  57  81 SE21      29.81R
FALLS CITY     HVY RAIN  62  62 100 E18       29.87S FOG
LAMONI         RAIN      61  61 100 SE3       29.94F
DES MOINES     LGT RAIN  63  59  87 SW6       29.88F

$$





USA.gov is the U.S. government's official web portal to all federal, state and local government web resources and services.